ECMWFNIL_250_spd_129.txt.gz
Wind_Speed
47 45 42 43 44 46 46 46 47 47 48 48 48 46 44 43 43 43 44 45 47 48 49 50 50 50 49 49 49 50 50 49 49 49 50 51 52 52 53 54 55 55
50 48 45 45 46 48 48 48 47 47 47 48 47 45 44 44 43 44 44 45 46 47 48 50 51 51 50 49 49 49 49 49 50 51 52 53 54 55 56 57 57 57
52 51 49 49 49 50 50 49 47 46 47 47 47 46 45 45 45 45 46 47 47 47 49 50 51 51 51 50 49 49 49 50 52 53 54 55 56 58 58 58 58 58
54 52 49 49 48 48 49 49 48 48 47 47 47 47 47 47 47 47 47 47 48 49 50 50 50 51 50 50 50 50 51 52 53 55 56 57 58 59 60 60 60 60
54 51 48 46 46 46 48 49 50 49 49 48 49 49 50 49 49 48 48 49 49 50 49 49 49 50 50 51 52 53 54 54 55 57 58 60 61 61 62 62 62 62
53 52 50 50 51 51 52 52 50 49 49 49 50 51 51 50 49 48 48 49 49 49 49 49 50 50 52 53 54 55 56 57 58 59 60 61 62 62 63 63 63 64
50 52 53 54 55 55 54 53 51 49 49 50 51 51 51 49 48 47 47 48 48 49 49 50 51 52 54 55 56 56 57 58 59 60 61 61 62 63 63 64 65 65
46 50 52 54 55 55 54 52 51 50 51 51 52 51 49 48 47 47 48 49 50 51 51 52 53 54 55 56 56 57 58 59 60 60 61 62 63 64 65 65 66 67
47 49 51 52 52 52 52 52 51 51 52 52 51 50 49 48 49 49 50 51 52 53 54 55 56 56 57 57 57 57 59 60 61 61 62 62 63 64 65 66 67 68
51 50 50 50 50 51 51 51 52 53 53 52 51 50 50 50 51 51 52 53 54 55 56 57 58 58 58 58 59 60 60 61 62 62 63 63 64 65 66 68 69 70
50 49 49 49 49 49 50 51 52 52 52 51 51 51 50 51 52 52 53 54 55 57 58 59 59 59 60 60 61 62 63 63 63 64 64 65 66 67 68 69 70 71
49 48 48 48 49 49 50 51 51 51 51 51 51 50 51 52 53 54 55 56 57 58 59 60 61 62 62 63 64 64 65 65 66 66 66 66 67 68 68 69 70 71
48 48 47 48 49 49 50 51 51 51 51 51 51 51 52 53 55 56 57 58 59 60 61 62 63 64 65 66 66 66 67 67 67 67 67 67 68 68 68 69 70 71
47 47 48 49 49 50 51 52 52 51 51 52 52 53 54 55 56 58 59 60 61 62 63 64 65 66 67 68 68 68 68 68 67 67 67 68 67 67 68 69 70 71
49 49 49 50 51 52 54 54 53 53 53 53 53 54 55 56 57 59 61 62 63 64 65 66 68 69 70 70 70 69 68 68 67 67 67 66 67 67 68 69 70 72
50 50 51 52 53 55 58 58 56 55 55 54 55 56 57 57 58 60 62 63 65 66 68 69 70 71 71 70 69 68 67 67 66 66 66 66 67 68 68 69 71 72
49 50 51 52 53 55 58 60 59 59 58 57 58 59 60 60 61 62 63 65 66 68 69 70 71 71 70 69 68 67 66 66 65 65 65 66 67 68 69 70 72 74
51 52 53 53 53 54 56 59 60 60 61 60 61 62 62 63 63 64 65 66 67 68 69 69 69 69 68 67 67 66 65 65 65 65 66 67 67 68 70 72 75 78
52 53 53 54 54 55 56 57 57 58 59 60 61 62 63 63 64 65 66 67 67 68 68 68 68 67 66 66 65 65 64 64 65 65 66 66 68 70 73 76 80 83
53 55 55 55 56 56 56 57 57 58 58 59 60 62 63 64 65 66 66 66 66 66 66 66 66 65 65 65 64 64 64 64 65 65 66 67 70 74 78 81 84 86
53 53 54 54 55 55 57 58 58 59 59 60 61 62 63 64 65 65 65 66 66 66 65 65 64 64 64 64 64 64 65 65 66 67 69 72 75 79 82 84 87 89
51 51 51 52 53 54 56 57 58 60 61 62 63 63 64 64 65 65 65 66 66 66 65 65 64 64 64 65 65 66 67 68 69 71 74 77 80 82 85 87 88 89
50 50 51 53 54 56 58 59 60 62 63 63 63 63 64 64 64 65 65 65 65 65 65 65 65 66 67 68 68 69 70 72 74 76 78 80 82 84 86 87 87 87
49 50 51 53 54 56 57 59 60 61 61 61 62 62 63 63 63 64 64 64 65 66 66 67 68 69 70 71 72 73 74 75 77 78 80 82 83 85 86 85 84 82
48 50 52 52 53 54 55 56 58 59 60 61 62 62 63 63 64 64 65 66 67 68 69 70 71 71 72 72 73 74 75 76 78 79 81 82 83 84 83 81 79 76
48 51 52 53 55 56 57 59 60 61 62 63 63 64 64 65 65 66 67 68 68 69 70 70 71 71 72 72 73 74 76 77 78 80 81 81 81 80 78 76 74 72

ECMWFNIL_250_spd_132.txt.gz
Wind_Speed
42 41 40 42 43 43 43 44 45 45 44 45 45 46 46 47 47 46 46 46 47 48 49 50 49 48 49 50 52 53 52 50 49 48 47 48 48 49 49 50 51 51
46 44 42 43 44 45 46 46 47 47 47 47 47 47 47 47 48 48 48 49 49 50 51 51 51 51 52 53 53 52 50 48 47 47 48 48 49 50 51 52 53 53
49 47 44 44 46 47 48 48 48 48 48 48 47 47 48 48 48 49 49 50 52 53 53 52 52 52 53 53 52 49 47 47 48 49 49 50 51 53 54 55 55 56
48 47 45 45 47 49 50 50 50 50 50 49 48 47 47 47 48 48 49 51 53 53 53 52 52 52 53 52 49 48 47 48 50 51 52 53 54 56 57 57 58 58
47 46 45 45 47 48 48 49 49 50 50 49 48 47 47 48 48 49 50 51 52 52 52 52 52 52 51 50 48 48 49 51 53 54 55 56 57 58 58 59 59 59
39 40 41 41 42 43 44 45 45 46 46 46 45 46 48 48 49 50 51 52 52 52 53 53 53 52 50 49 49 51 53 54 56 57 58 59 59 60 60 60 61 62
30 33 36 37 38 40 41 43 43 43 43 44 44 45 46 48 49 50 51 52 52 53 54 54 53 52 51 52 53 54 56 57 58 59 60 60 60 61 61 62 64 65
30 32 34 34 34 36 37 39 40 41 42 43 43 44 46 48 49 51 52 53 53 54 54 54 53 53 54 55 56 57 58 59 59 60 61 62 62 63 64 65 66 67
32 32 33 34 34 34 35 36 37 38 39 41 42 45 47 49 50 52 53 54 54 55 55 55 55 55 56 57 58 58 59 60 61 62 63 63 64 66 67 68 68 68
36 37 40 40 40 40 41 41 40 41 42 42 44 46 48 50 52 53 53 54 55 56 56 56 56 57 57 58 59 59 61 62 62 63 64 65 67 68 68 69 68 68
40 43 47 48 47 47 47 46 46 47 47 47 49 50 51 52 53 53 54 55 56 57 57 57 56 56 57 58 59 61 62 63 64 65 66 67 68 68 69 69 68 68
41 44 47 48 49 49 49 49 49 50 51 52 53 54 54 53 53 53 54 55 56 56 56 56 56 56 57 59 61 62 63 64 65 66 67 68 69 69 69 68 68 68
42 45 46 48 49 49 50 50 50 52 53 53 53 53 52 52 52 53 54 55 56 57 57 58 58 58 60 62 63 64 65 66 67 68 68 69 69 68 68 68 68 69
44 46 48 49 50 49 49 51 52 53 53 52 51 50 50 51 52 53 55 56 58 59 60 61 61 61 62 63 64 65 67 68 68 69 68 68 67 67 67 68 69 69
44 47 50 51 52 53 53 54 54 53 53 53 52 51 51 52 53 55 56 58 59 60 61 62 63 63 64 65 66 67 67 68 68 67 67 67 67 67 68 69 69 70
46 49 51 52 53 54 53 53 52 52 53 53 52 52 52 53 54 55 56 57 58 59 60 61 62 63 64 65 66 66 66 66 66 66 66 67 68 69 69 70 71 72
47 49 50 50 50 48 47 47 47 48 50 51 52 52 53 54 54 55 55 56 58 59 60 61 62 63 63 64 64 65 65 65 66 66 68 69 70 71 72 72 73 74
47 46 44 43 42 41 43 46 46 46 48 52 55 55 55 56 56 56 57 57 58 59 59 60 61 61 62 63 64 64 65 66 67 68 70 71 72 72 73 74 74 75
46 44 41 39 40 41 44 47 47 48 50 53 56 56 55 55 55 55 56 56 57 58 59 60 60 61 62 63 64 65 66 68 69 70 71 71 72 73 73 74 74 75
45 44 44 44 45 46 47 49 50 50 52 52 53 52 51 51 52 53 54 55 57 58 59 60 61 61 63 64 65 66 68 68 69 70 71 71 72 72 73 73 74 75
48 48 48 48 49 50 51 52 52 52 51 51 50 50 51 52 53 54 55 56 57 58 59 60 61 62 63 65 66 67 67 68 69 69 70 71 72 72 73 73 74 75
50 51 51 51 52 53 54 53 53 53 52 51 51 52 53 54 54 55 56 57 57 58 59 60 62 63 64 65 66 67 67 68 69 70 70 71 71 72 72 73 74 74
47 48 48 49 51 52 52 52 53 53 53 54 54 54 53 54 54 55 55 56 57 59 60 62 64 65 65 66 67 67 68 69 69 70 70 70 70 71 71 72 73 75
46 46 48 49 51 52 53 54 54 54 54 54 53 52 52 53 54 55 56 58 60 62 63 64 65 66 66 67 67 68 68 69 69 69 69 69 69 70 71 72 73 75
47 48 50 51 52 53 53 53 53 53 51 50 50 51 52 54 55 57 59 61 62 63 64 65 66 66 67 67 67 67 67 67 67 67 67 68 68 69 71 72 73 73
43 44 46 47 49 50 49 48 48 49 48 49 51 53 55 57 59 60 61 62 63 64 64 65 65 66 66 66 66 66 66 65 65 65 66 67 68 69 70 70 70 70

ECMWFNIL_250_spd_135.txt.gz
Wind_Speed
36 40 47 47 43 40 35 33 33 36 40 42 42 43 43 44 45 46 45 45 46 47 48 48 49 50 50 51 51 51 52 51 50 50 51 52 53 54 54 54 53 53
37 37 44 48 47 44 40 37 37 37 38 40 41 42 43 45 46 46 46 47 47 48 49 49 50 51 51 51 51 51 51 50 50 51 52 53 54 55 55 54 53 53
43 43 45 47 47 44 40 40 41 38 36 38 41 39 40 43 45 46 47 47 48 49 50 50 51 52 52 51 51 50 50 50 51 52 53 54 55 55 55 54 54 55
45 44 44 44 44 42 39 39 40 40 39 41 43 41 42 44 46 47 48 49 50 51 52 53 53 53 52 51 50 50 51 51 52 53 54 55 55 55 55 55 57 58
43 44 44 44 42 39 38 38 39 41 43 45 46 47 47 47 46 47 47 48 49 50 51 52 52 51 50 50 50 50 51 52 53 54 54 55 55 55 56 57 58 59
39 41 43 43 39 33 32 34 37 41 45 48 50 50 48 46 45 45 45 45 46 47 48 48 48 49 49 50 50 50 51 52 53 53 54 55 56 57 58 59 60 61
37 36 36 37 35 31 28 28 33 40 45 47 48 47 46 45 44 44 44 44 44 45 45 46 48 48 49 49 50 50 51 52 53 54 55 56 57 58 59 61 62 64
36 34 33 33 33 32 29 27 31 38 42 42 41 42 42 43 43 43 43 44 44 44 45 46 47 48 49 49 50 51 52 53 55 56 57 58 59 60 62 63 64 65
35 35 35 35 33 33 33 32 37 42 42 40 39 39 40 41 42 42 43 43 43 44 46 48 48 49 50 50 51 52 54 55 56 57 58 60 62 63 64 65 65 66
34 37 38 39 38 37 38 40 44 45 43 43 42 40 40 40 41 42 43 44 45 47 49 50 50 51 52 53 54 54 55 56 58 59 61 63 64 64 65 65 65 65
34 36 37 40 41 42 42 43 45 45 43 43 43 42 42 43 43 45 46 47 49 50 51 52 52 54 55 55 56 56 57 58 60 62 63 64 64 64 64 64 65 65
36 36 36 37 39 41 42 43 45 46 45 46 47 48 49 49 50 50 50 51 51 52 52 54 55 56 57 58 58 58 58 60 61 63 63 63 63 63 63 64 65 66
38 38 37 37 37 38 40 42 44 46 48 51 52 53 54 54 53 52 52 51 51 52 54 56 57 59 59 59 59 59 60 61 61 62 61 62 62 63 64 65 66 67
39 39 39 39 39 39 40 41 43 47 49 51 52 53 53 53 52 51 50 50 51 53 56 58 59 60 59 59 60 60 61 61 60 60 61 61 62 64 65 66 68 69
40 40 41 42 42 42 42 42 45 48 50 52 53 53 53 53 52 51 51 52 54 56 57 58 59 59 59 60 60 60 60 60 60 61 61 62 63 65 67 69 70 71
41 41 42 43 44 44 44 45 47 49 51 54 55 55 54 54 53 53 54 55 57 57 57 57 58 58 58 58 58 58 59 60 60 61 62 64 66 68 69 71 71 71
42 43 43 43 43 44 45 47 49 50 52 53 53 53 53 53 53 54 55 55 54 54 54 55 56 57 57 58 58 59 59 60 61 62 64 66 68 69 70 71 71 72
41 43 44 45 44 44 45 47 49 50 51 51 52 53 53 53 52 52 51 51 51 52 54 55 56 57 58 59 59 60 61 62 63 64 66 67 68 69 70 71 71 72
40 43 44 45 44 44 45 47 50 51 52 52 53 53 52 50 49 49 50 51 52 54 55 56 57 58 59 60 60 61 61 62 63 65 66 68 69 70 70 70 70 71
37 40 42 43 43 43 44 46 48 49 50 50 49 48 47 48 49 50 51 52 53 54 55 56 57 57 58 59 59 60 61 62 64 66 67 68 69 69 69 69 69 69
37 39 40 40 40 42 43 44 45 45 45 45 46 47 48 49 50 51 51 52 52 53 54 55 56 57 57 58 59 60 62 64 65 66 68 69 69 68 68 67 67 67
41 42 42 40 40 41 42 44 46 46 47 47 48 48 49 50 50 51 52 53 54 55 56 57 57 58 58 59 60 62 64 65 66 67 68 68 67 66 66 65 65 65
42 44 44 44 44 45 46 48 49 49 50 51 50 50 50 51 52 53 55 56 57 58 58 58 58 58 59 61 62 64 65 66 66 66 66 65 65 64 64 64 64 64
42 43 44 46 47 48 49 49 50 51 52 52 53 53 53 53 54 56 57 58 58 58 57 57 58 59 61 62 63 64 65 65 65 64 64 64 63 63 63 62 63 63
43 44 45 46 47 47 48 49 50 50 51 52 53 53 54 55 56 56 56 56 55 55 56 57 59 61 62 63 63 64 64 63 63 63 62 62 61 61 61 61 61 62
43 44 46 48 48 48 49 50 52 52 53 53 54 54 55 55 55 54 53 53 54 55 57 59 60 61 62 63 62 62 62 62 62 61 61 60 60 60 60 61 61 62

ECMWFNIL_250_spd_141.txt.gz
Wind_Speed
37 34 33 33 31 29 29 32 33 31 29 30 30 31 32 34 36 36 35 35 35 37 39 40 39 38 38 38 40 43 44 45 45 44 44 46 48 50 52 54 55 55
40 37 35 33 33 32 31 32 32 31 29 28 29 30 32 34 36 37 35 35 34 34 36 38 38 39 39 39 41 44 46 47 47 46 47 49 52 54 55 56 56 54
38 38 36 34 33 32 32 32 33 33 31 29 29 30 34 36 37 37 34 33 33 34 36 38 39 40 40 40 41 44 47 48 49 50 52 54 55 55 55 55 54 52
36 37 37 35 34 33 32 33 33 33 32 32 31 33 36 38 38 37 34 33 36 38 38 38 39 39 39 40 42 45 48 49 51 54 55 55 54 53 53 53 52 53
38 38 36 36 36 34 33 32 31 31 32 32 32 34 36 39 40 38 36 37 40 40 38 39 40 40 40 41 43 46 49 51 53 54 53 53 53 53 53 53 53 55
40 39 35 34 35 35 35 33 31 31 32 32 33 35 37 39 41 40 40 40 40 38 39 41 41 41 42 43 46 49 51 52 52 51 51 54 55 53 53 53 55 56
39 39 37 35 34 35 35 35 35 34 34 35 35 37 39 41 41 41 41 40 38 38 41 43 43 44 44 45 48 50 51 51 50 50 54 57 55 54 54 54 56 57
36 37 39 39 37 36 35 35 36 36 35 37 38 38 41 42 41 41 42 41 41 42 45 46 46 45 44 45 47 48 49 50 51 53 57 58 57 56 55 55 57 61
34 35 38 40 40 39 36 35 35 35 34 36 38 39 42 43 45 46 47 46 46 47 48 46 45 44 44 46 47 48 49 51 54 57 59 59 58 56 56 58 61 63
34 34 36 37 39 39 37 35 36 35 34 35 38 41 44 46 50 51 50 49 48 47 46 44 43 44 46 48 49 48 50 54 57 58 58 57 56 56 59 62 64 63
34 36 37 37 38 37 37 37 37 36 36 38 40 43 46 49 50 49 47 46 46 45 44 43 44 46 48 48 49 50 53 55 55 55 54 55 57 61 63 64 64 64
36 36 38 39 40 39 38 38 38 36 39 43 44 44 45 46 46 45 44 44 44 44 43 43 44 46 47 49 50 53 54 54 54 55 56 59 62 63 63 64 65 66
40 39 38 38 40 42 40 39 40 40 42 44 45 44 43 43 43 42 42 42 43 43 44 44 45 46 48 50 53 54 55 55 57 59 60 62 62 62 63 65 66 68
40 42 41 39 39 41 42 40 41 43 45 45 44 43 43 43 43 42 41 42 43 45 46 46 46 47 50 53 55 56 57 58 59 59 60 61 62 63 65 66 68 70
38 40 42 41 40 41 42 42 42 43 45 45 45 45 44 44 43 42 42 44 45 47 49 49 50 51 53 56 57 58 58 58 58 59 60 61 63 64 67 68 69 70
36 37 39 41 42 42 42 43 45 45 46 46 46 46 45 44 43 43 44 46 48 50 52 53 53 54 55 56 57 57 57 58 59 60 61 63 65 67 68 69 69 70
34 36 37 39 42 44 44 44 45 45 46 45 45 44 44 43 42 43 45 47 48 50 52 53 54 54 54 55 56 57 58 59 61 63 65 67 68 68 69 69 69 71
34 35 36 38 40 43 44 45 45 45 44 44 43 42 42 42 43 45 47 48 49 51 52 54 55 55 56 57 58 60 61 63 65 66 67 68 68 68 68 69 70 71
36 37 38 38 40 41 43 43 43 43 43 43 43 44 45 45 47 49 51 52 53 54 55 57 57 58 59 60 61 63 64 66 67 67 67 67 67 67 68 69 70 69
36 39 40 40 40 41 42 43 42 41 41 42 44 46 48 49 50 52 54 55 56 57 58 59 59 60 61 62 63 64 65 66 66 66 66 65 66 67 68 69 68 66
34 37 39 41 41 41 43 44 44 43 43 44 46 48 49 50 51 53 54 56 57 58 58 58 59 60 61 62 63 64 64 65 65 64 64 65 66 67 68 67 65 64
32 35 37 38 40 41 43 45 46 46 46 47 49 50 51 51 52 53 54 55 56 57 58 59 60 61 61 62 63 63 63 63 63 63 64 65 66 66 65 64 63 64
29 32 34 36 37 38 40 43 44 45 46 48 50 51 53 54 55 55 56 57 58 59 59 60 61 61 61 61 61 61 62 62 63 64 65 65 64 63 62 62 64 66
28 30 32 34 35 36 38 41 42 43 45 47 49 52 53 55 56 57 58 58 59 59 59 58 58 58 59 59 60 61 62 63 64 64 63 62 62 61 62 63 65 67
31 31 32 34 35 37 39 41 43 45 46 48 50 52 54 55 55 55 56 56 57 57 57 56 56 57 58 59 61 62 63 63 63 62 61 60 59 60 62 64 66 69
34 34 34 34 35 36 38 40 42 44 46 47 49 50 52 53 53 52 53 54 55 56 55 56 57 58 60 61 62 62 62 62 60 59 58 58 59 61 64 66 69 70

ECMWFNIL_250_spd_144.txt.gz
Wind_Speed
36 36 37 39 40 39 37 34 33 32 33 35 36 35 37 39 39 39 39 39 39 39 38 35 34 38 40 42 42 43 43 44 45 46 45 45 45 46 47 48 50 52
35 36 37 38 39 40 39 37 35 33 32 36 38 37 36 37 40 42 42 41 42 41 38 35 36 39 40 42 43 43 43 44 45 45 46 46 47 48 48 49 51 53
34 35 36 36 38 39 40 39 38 36 35 38 41 41 39 38 41 44 44 43 42 40 37 37 38 39 39 41 42 43 44 44 44 44 45 47 48 48 49 51 52 54
33 35 35 35 36 39 42 41 38 36 36 38 41 42 42 41 41 42 42 42 42 40 38 38 38 38 40 42 43 43 43 44 45 45 46 48 48 49 50 52 53 55
32 34 35 36 36 39 44 43 40 38 38 37 39 40 42 43 43 42 42 41 42 41 40 39 39 39 41 43 45 45 45 46 46 47 49 50 49 49 50 52 53 55
32 34 35 36 36 38 43 45 43 41 40 39 40 40 42 43 43 43 42 41 41 41 41 40 39 40 42 43 45 45 46 46 47 48 51 50 48 48 49 52 54 55
32 34 35 36 36 37 41 44 44 42 41 41 42 42 43 43 44 44 42 40 40 41 41 41 41 42 42 43 45 46 45 46 48 50 50 48 47 48 51 54 55 54
33 34 34 35 36 36 39 41 42 42 42 41 42 43 44 44 44 43 41 39 39 41 43 43 44 43 43 44 45 45 46 48 51 52 49 47 47 50 53 54 54 55
32 33 34 34 34 36 39 42 42 41 42 42 42 43 44 45 45 44 42 41 41 43 45 45 45 44 43 44 45 46 49 51 52 50 48 47 49 51 53 54 55 55
32 33 33 32 33 35 38 41 43 42 41 41 41 43 44 45 46 45 44 44 44 45 45 45 45 44 45 46 48 50 51 51 50 48 47 47 49 51 54 55 54 53
32 33 32 31 32 34 35 39 42 43 43 41 41 41 44 46 46 46 45 45 45 46 46 45 46 47 47 49 50 50 49 48 47 47 46 47 49 52 54 54 52 51
33 33 32 31 31 32 34 36 39 42 43 43 42 42 43 45 46 46 45 45 46 46 46 47 47 48 48 49 48 47 46 46 46 46 46 49 51 52 52 51 52 54
33 32 31 32 32 33 33 34 35 38 40 42 43 43 44 45 45 45 45 45 46 47 47 47 47 47 47 47 46 45 45 44 45 46 48 50 52 51 52 53 55 57
32 32 32 32 33 34 35 34 34 35 37 40 42 43 45 45 45 46 46 46 46 46 47 46 46 46 46 46 46 45 45 45 46 48 50 52 52 53 54 55 57 59
31 32 33 33 33 34 36 36 36 35 36 37 40 43 44 45 46 47 47 47 47 47 48 47 47 46 46 45 45 45 46 47 48 49 50 51 52 53 55 57 59 62
30 31 32 34 34 35 36 38 39 39 37 37 38 42 44 45 46 48 49 49 49 50 49 48 46 45 44 43 44 45 46 47 48 49 50 51 53 55 57 60 63 65
31 31 32 33 34 35 35 36 38 40 41 40 39 41 44 46 47 48 50 51 52 52 50 48 46 44 43 43 44 46 47 49 50 51 53 54 56 58 61 63 65 66
31 31 31 32 33 33 34 35 35 38 40 41 42 42 44 46 48 48 49 51 52 53 52 51 49 47 46 47 48 49 50 52 53 55 56 58 59 61 63 64 66 66
31 32 31 31 32 32 33 34 35 36 38 40 42 43 45 47 49 50 51 51 52 53 53 52 52 51 51 51 51 53 54 55 57 58 59 60 61 63 64 64 65 64
31 32 32 32 32 32 33 34 35 36 37 38 40 42 44 47 48 49 50 50 50 50 50 50 51 52 53 53 54 56 57 58 59 60 60 61 62 63 63 63 62 62
30 32 33 33 33 33 32 33 35 36 37 38 40 41 43 44 46 47 47 48 48 47 47 48 50 52 53 54 56 57 58 59 59 60 61 62 62 61 60 60 61 62
30 31 33 34 34 34 34 34 35 36 38 39 40 41 42 43 44 45 45 46 47 47 47 48 49 51 52 54 55 56 57 58 59 60 60 60 59 59 59 60 61 63
29 31 33 34 35 35 35 35 36 37 38 39 40 41 43 44 45 46 46 47 47 48 49 51 52 52 54 55 56 58 58 59 59 59 57 57 57 58 59 61 62 64
29 30 32 34 35 35 35 35 36 36 37 38 39 40 42 44 45 47 48 49 50 51 52 53 54 55 56 57 58 59 59 58 57 56 55 56 58 59 61 62 62 62
30 30 31 33 35 35 35 34 34 35 36 37 38 39 39 41 43 45 47 49 50 51 52 54 55 56 57 57 58 58 57 55 55 55 56 58 59 60 60 60 59 58
31 30 30 31 33 34 34 34 34 35 36 37 38 39 40 41 42 44 46 48 49 51 52 54 55 55 56 57 57 56 55 54 55 56 57 57 58 58 57 56 56 56

ECMWFNIL_250_spd_150.txt.gz
Wind_Speed
33 34 35 36 36 35 34 33 33 33 33 34 35 36 37 36 36 35 35 36 35 35 37 38 39 39 39 39 38 38 38 39 41 41 42 44 44 45 44 44 45 46
34 35 36 37 37 37 36 35 34 34 33 33 33 34 34 35 34 31 32 34 35 35 36 38 40 41 40 39 37 37 39 41 42 43 43 43 44 45 46 47 48 49
34 35 35 36 36 36 36 36 36 36 35 34 33 32 32 33 33 31 31 33 32 32 34 35 37 39 40 40 38 38 40 42 43 44 44 44 45 47 48 50 51 51
31 32 32 33 34 34 35 36 37 36 36 35 33 32 30 30 32 33 34 34 32 32 33 33 35 38 40 42 42 41 42 43 44 45 46 47 48 49 50 51 51 51
28 28 29 30 31 32 33 35 35 35 35 35 34 32 30 31 33 34 35 36 36 34 32 34 38 41 42 44 44 44 44 45 46 47 47 48 49 50 51 51 52 51
25 26 27 28 29 31 32 33 33 34 34 34 33 32 31 32 34 34 35 37 38 37 35 36 39 42 43 45 46 46 46 46 46 47 47 48 49 51 52 52 52 52
24 25 27 28 29 30 31 31 32 32 32 32 32 32 32 33 33 33 34 36 37 38 37 38 40 42 43 46 48 49 49 48 48 48 49 50 52 53 53 54 54 54
24 25 26 27 28 29 29 30 30 31 31 30 31 32 32 32 32 32 34 35 38 40 40 39 41 43 44 46 49 49 48 48 49 49 50 51 52 53 54 55 55 56
24 25 26 27 27 27 27 29 29 30 30 30 30 31 31 31 31 31 33 35 38 41 43 43 43 44 45 47 48 48 47 47 48 49 50 51 52 53 55 55 56 57
24 25 26 27 27 26 27 28 28 29 29 30 30 31 31 31 30 31 32 35 37 40 43 45 46 47 47 48 48 47 48 48 48 49 50 51 52 53 54 55 56 57
24 25 26 26 26 26 27 28 27 28 28 29 30 30 31 30 30 30 31 34 36 38 41 44 46 48 48 49 49 48 49 49 50 51 51 51 52 53 54 54 55 55
25 25 26 25 25 26 27 27 27 27 27 28 29 30 30 31 30 30 30 32 35 37 40 43 46 47 48 48 48 49 49 50 50 50 50 51 52 53 54 54 54 55
25 25 25 25 25 25 26 27 27 27 27 28 29 29 30 30 30 31 30 31 34 37 39 43 46 47 48 49 50 50 50 51 51 51 51 52 53 53 54 55 56 56
25 25 25 25 24 25 26 27 27 27 28 28 29 29 30 30 30 31 31 32 33 35 38 42 45 47 48 49 51 52 53 53 53 53 53 53 54 55 55 56 57 58
24 25 24 24 24 25 26 27 27 27 28 29 29 29 30 30 30 30 31 32 33 35 37 39 43 46 48 49 50 51 52 53 53 54 54 55 55 56 57 57 58 58
24 25 24 24 24 25 26 27 27 28 29 30 30 30 29 29 30 30 30 31 33 35 37 38 40 42 45 48 50 51 52 53 54 54 55 56 56 57 57 57 57 57
25 25 24 24 25 26 27 28 28 28 29 30 31 30 30 29 29 29 29 30 31 33 35 37 40 41 43 45 46 48 50 51 53 54 55 55 55 55 55 55 55 55
25 25 25 25 26 27 28 28 28 28 29 30 30 30 30 30 29 29 30 30 30 31 32 35 38 41 43 45 46 46 47 47 48 50 51 52 53 53 54 54 55 56
25 26 26 26 27 28 29 29 28 28 29 30 30 30 29 29 30 30 30 31 31 31 31 32 35 38 41 43 45 46 47 47 47 47 48 49 50 52 53 54 55 55
26 26 27 28 28 29 29 29 29 29 29 29 30 30 29 29 29 30 31 31 32 32 32 32 33 34 37 39 40 41 43 44 44 45 46 46 47 49 50 51 51 51
27 27 28 29 29 30 30 30 30 29 29 29 30 30 30 29 29 30 30 31 32 33 33 33 33 34 36 37 38 38 39 40 42 43 44 44 45 47 48 50 51 52
28 29 30 30 30 30 30 31 30 30 30 30 30 30 30 30 29 30 30 31 32 33 34 34 35 35 36 37 38 38 39 40 41 43 43 44 45 47 48 49 51 52
30 30 31 31 31 31 31 32 32 31 31 31 32 31 31 30 30 30 30 31 32 34 35 35 36 37 37 38 39 39 39 40 41 42 43 44 44 46 47 48 48 50
32 32 32 32 32 32 32 33 33 32 32 32 33 33 32 31 31 30 31 31 32 34 35 36 37 37 38 39 40 40 40 40 41 42 43 44 45 45 46 47 46 47
34 34 34 34 33 33 33 34 34 34 34 34 34 34 34 33 32 31 31 32 33 34 35 35 36 38 39 39 40 41 41 42 43 43 44 45 45 45 45 45 44 44
36 35 35 35 35 35 35 35 35 35 35 36 36 36 36 34 33 32 33 33 33 34 35 35 35 37 38 39 40 41 42 42 43 44 44 44 44 44 43 42 42 43

ECMWFNIL_250_spd_156.txt.gz
Wind_Speed
45 44 43 42 41 41 40 39 38 36 36 36 35 34 34 34 34 34 34 34 33 33 31 29 28 26 22 19 18 19 20 18 18 20 23 26 27 28 30 32 35 36
44 43 42 40 39 39 39 37 35 34 35 35 34 33 33 32 32 30 30 30 30 30 28 25 24 23 21 20 21 21 21 19 19 21 23 27 29 31 34 38 41 39
43 43 40 38 38 38 37 35 34 33 34 34 32 31 30 29 28 26 25 27 29 29 26 22 22 21 21 23 23 23 24 23 23 25 26 28 30 31 34 39 43 42
43 41 38 36 36 36 34 33 33 33 32 30 28 28 27 26 25 23 21 23 29 31 25 20 20 21 23 25 24 24 25 26 27 30 31 33 34 35 38 41 45 46
42 39 35 34 33 33 32 32 31 31 29 27 26 26 26 25 23 21 19 23 29 29 25 21 21 22 24 27 28 27 27 28 31 33 36 38 40 41 42 43 46 48
38 34 31 31 32 31 30 30 29 28 26 24 25 25 24 23 21 20 20 22 24 23 21 22 24 26 28 31 32 31 31 33 34 34 34 36 38 40 42 45 47 48
33 29 29 30 30 29 28 28 27 25 24 24 24 23 23 22 20 20 19 19 21 22 23 26 28 30 32 34 35 35 34 34 32 30 32 36 38 41 45 48 49 50
29 29 30 29 28 27 26 25 24 23 23 23 22 22 21 21 19 20 20 19 20 22 25 28 31 33 34 35 36 36 35 34 32 32 35 40 43 46 49 50 50 50
29 30 29 27 25 25 23 23 22 22 22 22 21 21 20 20 19 19 19 19 21 24 27 29 30 32 33 33 34 34 34 35 35 37 40 43 45 46 48 50 50 50
30 28 26 25 24 22 21 21 22 22 22 21 20 20 20 20 19 18 17 19 22 25 27 28 28 29 30 31 32 33 33 33 33 36 40 43 45 47 48 50 51 51
28 26 25 24 22 21 21 21 22 22 22 21 20 20 20 20 19 19 19 20 22 23 24 25 25 26 28 29 31 32 33 32 31 32 36 40 44 47 49 49 49 50
26 25 24 22 21 21 21 21 22 22 21 21 20 20 20 20 20 20 20 21 22 22 22 23 23 24 26 27 29 31 32 32 31 32 35 39 43 45 46 46 47 49
26 25 23 22 21 21 21 21 21 21 21 20 20 19 20 20 21 21 22 22 22 22 22 23 23 23 24 25 27 28 29 30 31 34 38 41 43 44 45 47 49 51
25 24 23 22 22 22 22 21 21 20 20 20 19 20 20 21 22 22 23 23 23 23 23 23 23 23 23 24 25 27 28 29 30 32 36 39 41 42 45 47 48 49
25 25 24 23 23 22 21 20 20 20 20 20 20 20 21 21 22 23 23 24 24 24 23 23 23 23 23 23 24 26 27 28 29 31 32 34 35 37 39 41 42 43
26 25 24 23 23 22 21 20 20 20 20 20 20 20 21 22 22 23 23 24 24 24 24 24 23 23 22 22 22 23 24 26 27 28 30 31 32 33 34 35 36 37
25 24 23 22 21 20 20 19 20 20 20 20 20 21 22 22 22 23 23 24 25 25 25 25 24 24 23 22 22 22 23 23 24 25 27 28 30 31 32 33 33 33
22 21 21 20 20 20 19 20 20 20 20 20 21 22 23 23 23 23 23 24 25 25 25 25 25 25 25 24 24 24 24 24 24 25 25 26 27 28 30 31 31 31
19 18 19 19 19 19 20 21 21 21 21 21 22 23 24 24 24 23 24 24 25 25 25 25 26 26 26 26 26 26 26 26 27 27 26 27 28 28 29 29 30 30
18 18 19 20 20 21 22 22 22 21 22 22 23 24 25 25 25 24 25 25 25 26 26 26 26 26 26 27 27 28 29 29 30 29 29 29 29 30 30 30 29 29
19 20 20 21 21 21 22 22 22 23 23 23 24 25 26 26 26 26 26 26 26 26 26 26 26 26 27 27 28 29 30 32 32 32 32 32 32 32 32 31 30 29
20 21 21 21 21 22 23 23 23 23 23 24 25 26 26 26 26 27 27 28 28 27 26 26 26 27 27 28 29 30 31 33 34 35 34 34 34 34 34 32 31 30
21 22 22 22 23 23 24 24 24 23 24 25 27 28 27 27 27 27 28 29 29 28 27 27 28 28 29 29 30 31 32 33 35 36 36 36 36 36 36 34 33 32
23 24 24 24 24 25 26 26 25 25 26 28 29 28 28 28 28 28 29 30 30 30 29 29 29 30 30 31 31 32 34 35 36 37 38 38 38 39 38 37 36 35
26 27 26 26 25 26 27 27 27 27 29 30 29 29 28 29 29 29 30 31 31 31 31 30 31 31 32 32 33 34 36 37 38 39 40 40 41 42 42 41 39 38
28 29 29 28 28 29 30 30 30 30 31 30 29 29 29 29 29 29 30 31 32 32 32 32 32 33 34 34 35 36 37 38 39 40 41 42 43 44 46 46 45 43